Location: Castellare
(42.4669°N, 9.4728°E)
Time: 04:40:19
(UTC+00:00)

COSMO-SKYMED 1 - Pass Details

Date: 17 February 2020
Orbit: 621 x 623 km, 97.9° (Epoch: 29 March)

Event Time Altitude Azimuth Distance (km) Brightness Sun altitude
Rises 03:57:40 0° 146° (SE) 2,892 6.3 -26.3°
Reaches altitude 10° 03:59:58 10° 138° (SE) 1,990 5.6 -25.9°
Maximum altitude 04:03:57 37° 70° (ENE) 968 4.0 -25.1°
Drops below altitude 10° 04:07:58 10° 3° (N) 2,004 5.3 -24.4°
Sets 04:10:17 0° 356° (N) 2,916 6.0 -24.0°
